�N����,����,�~����,�C��,���x,�C��,����,���ϕ���,�ő�u�ԕ���,�ő厞����,���˗�,�I�_���x,�n�����x,�ő啗���N��,DTYPE
"22/07/22","00:10",0.0,24.6,90.8,996.3,319.0,1.0,1.6,340.7,0.00,23.0,25.0,"00:02:40",1
"22/07/22","00:20",0.0,24.7,91.0,995.6,280.3,0.7,1.1,342.3,0.00,23.2,25.2,"00:19:36",1
"22/07/22","00:30",0.0,24.7,91.1,996.0,342.9,0.8,1.4,338.9,0.00,23.2,25.3,"00:20:48",1
"22/07/22","00:40",0.0,24.7,91.1,995.6,242.3,0.5,1.1,230.8,0.00,23.2,25.0,"00:35:04",1
"22/07/22","00:50",0.0,24.6,91.3,995.8,277.3,0.8,1.3,255.6,0.00,23.1,25.1,"00:41:36",1
"22/07/22","01:00",0.2,24.7,91.3,995.8,292.9,1.0,1.7,337.2,0.00,23.2,25.2,"00:58:40",1
"22/07/22","01:10",0.2,24.7,91.4,996.5,326.0,1.2,3.2,308.5,0.00,23.2,25.2,"01:09:12",1
"22/07/22","01:20",1.4,24.7,91.7,996.5,331.7,2.6,5.2,343.1,0.00,23.3,25.2,"01:13:44",1
"22/07/22","01:30",7.0,24.6,91.8,996.7,297.3,0.7,2.5,318.2,0.00,23.2,25.2,"01:22:56",1
"22/07/22","01:40",3.6,24.5,92.3,996.5,149.0,0.5,1.4,206.1,0.00,23.2,25.1,"01:33:36",1
"22/07/22","01:50",0.8,24.5,92.3,996.3,184.2,0.6,1.0,240.7,0.00,23.2,25.0,"01:42:00",1
"22/07/22","02:00",0.4,24.5,92.5,996.3,142.2,0.6,1.9,142.9,0.00,23.2,25.0,"01:54:08",1
"22/07/22","02:10",0.0,24.4,92.6,996.5,319.0,0.5,1.0,314.3,0.00,23.2,24.9,"02:07:04",1
"22/07/22","02:20",0.0,24.4,92.8,996.5,336.6,0.6,1.0,317.7,0.00,23.2,24.9,"02:13:44",1
"22/07/22","02:30",0.0,24.3,92.9,996.5,317.7,0.3,0.9,341.3,0.00,23.1,25.0,"02:25:04",1
"22/07/22","02:40",0.0,24.4,93.0,996.3,332.1,0.5,1.0,335.7,0.00,23.2,25.0,"02:36:48",1
"22/07/22","02:50",0.0,24.4,93.2,996.5,275.7,0.3,1.1,297.4,0.00,23.3,24.8,"02:49:52",1
"22/07/22","03:00",0.0,24.4,93.4,996.5,317.8,0.7,1.2,330.6,0.00,23.3,25.0,"02:54:00",1
"22/07/22","03:10",0.0,24.3,93.4,996.5,306.4,0.5,1.0,327.2,0.00,23.2,24.8,"03:02:32",1
"22/07/22","03:20",0.0,24.2,93.5,996.3,318.6,0.2,0.5,324.1,0.00,23.1,25.0,"03:11:28",1
"22/07/22","03:30",0.0,24.2,93.6,996.3,288.8,0.2,0.4,341.4,0.00,23.1,24.9,"03:20:16",1
"22/07/22","03:40",0.0,24.2,93.7,996.5,314.9,0.2,0.8,329.4,0.00,23.2,24.8,"03:35:20",1
"22/07/22","03:50",0.0,24.2,93.8,996.5,317.4,0.2,0.9,343.5,0.00,23.2,24.7,"03:41:12",1
"22/07/22","04:00",0.0,24.3,93.9,996.0,346.4,0.7,1.1,6.6,0.00,23.3,24.9,"03:53:28",1
"22/07/22","04:10",0.0,24.2,94.0,996.3,334.2,0.5,1.0,348.6,0.00,23.2,25.0,"04:01:28",1
"22/07/22","04:20",0.0,24.2,94.1,996.3,340.8,0.3,0.9,311.4,0.00,23.2,25.0,"04:16:00",1
"22/07/22","04:30",0.0,24.2,94.2,996.3,332.3,0.6,1.0,351.8,0.00,23.2,24.7,"04:20:56",1
"22/07/22","04:40",0.0,24.2,94.3,996.3,330.4,0.5,0.8,340.4,0.00,23.3,24.9,"04:39:04",1
"22/07/22","04:50",0.0,24.3,94.4,996.0,349.9,0.8,1.3,355.0,0.00,23.4,24.7,"04:43:12",1
"22/07/22","05:00",0.0,24.2,94.4,995.8,292.2,0.5,0.9,2.4,0.00,23.3,24.9,"04:50:48",1
"22/07/22","05:10",0.0,24.2,94.5,996.0,287.4,0.6,1.2,351.4,0.00,23.3,24.8,"05:07:52",1
"22/07/22","05:20",0.0,24.0,94.6,996.0,339.9,0.2,0.8,301.5,0.00,23.1,24.9,"05:19:52",1
"22/07/22","05:30",0.0,24.0,94.7,995.8,268.4,0.7,1.2,248.0,0.00,23.1,24.9,"05:28:16",1
"22/07/22","05:40",0.0,24.0,94.8,996.0,277.7,0.3,1.0,250.4,0.00,23.2,24.8,"05:36:16",1
"22/07/22","05:50",0.0,24.1,94.9,996.3,275.8,0.2,0.5,256.5,0.00,23.3,25.1,"05:44:32",1
"22/07/22","06:00",0.0,24.2,94.9,996.3,254.3,0.5,0.8,236.4,0.00,23.4,24.9,"05:53:20",1
"22/07/22","06:10",0.0,24.3,95.0,996.0,327.6,0.7,1.6,346.0,0.00,23.5,24.8,"06:08:56",1
"22/07/22","06:20",0.0,24.3,95.0,996.0,342.0,0.6,1.2,337.4,0.00,23.5,24.7,"06:10:48",1
"22/07/22","06:30",0.0,24.4,95.1,996.7,7.1,0.5,1.1,352.4,0.00,23.6,24.8,"06:20:56",1
"22/07/22","06:40",0.0,24.6,95.2,996.3,349.2,0.2,0.8,335.8,0.01,23.8,24.8,"06:33:20",1
"22/07/22","06:50",0.0,24.6,95.1,996.3,238.3,0.2,0.6,331.9,0.02,23.8,25.0,"06:48:32",1
"22/07/22","07:00",0.0,24.7,95.2,996.3,348.8,0.6,1.0,359.3,0.02,23.9,24.7,"06:54:00",1
"22/07/22","07:10",0.0,25.2,95.3,996.0,16.1,0.5,1.4,350.0,0.07,24.4,24.8,"07:08:24",1
"22/07/22","07:20",0.0,25.4,95.3,996.0,352.2,0.7,1.7,338.9,0.08,24.6,24.8,"07:14:00",1
"22/07/22","07:30",0.0,25.9,94.9,996.0,34.2,0.3,1.1,196.3,0.11,25.1,24.7,"07:28:48",1
"22/07/22","07:40",0.0,26.2,95.0,995.6,180.6,0.5,1.3,206.1,0.13,25.4,25.0,"07:36:56",1
"22/07/22","07:50",0.0,26.9,94.1,995.6,172.8,0.5,1.2,183.6,0.16,25.9,24.8,"07:47:36",1
"22/07/22","08:00",0.0,26.3,93.9,995.3,159.5,0.8,2.1,153.7,0.20,25.3,24.7,"07:53:52",1
"22/07/22","08:10",0.0,26.5,92.0,995.3,157.1,0.8,1.7,138.8,0.25,25.1,24.8,"08:03:20",1
"22/07/22","08:20",0.0,26.6,92.0,995.1,246.2,1.0,2.5,238.1,0.30,25.2,24.9,"08:19:52",1
"22/07/22","08:30",0.0,27.0,91.2,995.6,232.0,2.0,4.4,219.8,0.31,25.5,24.7,"08:24:40",1
"22/07/22","08:40",0.0,27.0,88.1,995.8,237.2,2.1,4.7,204.5,0.24,24.9,24.9,"08:36:32",1
"22/07/22","08:50",0.0,27.2,85.0,995.6,249.5,1.8,4.9,245.2,0.16,24.5,24.8,"08:47:36",1
"22/07/22","09:00",0.0,27.9,82.7,995.6,260.7,1.6,3.6,240.8,0.32,24.7,25.0,"08:51:04",1
"22/07/22","09:10",0.0,28.7,78.8,995.6,262.8,1.6,3.2,240.1,0.42,24.7,24.9,"09:00:02",1
"22/07/22","09:20",0.0,29.1,75.4,995.6,251.0,2.1,5.0,232.7,0.41,24.3,24.9,"09:16:32",1
"22/07/22","09:30",0.0,29.6,73.8,995.3,239.5,2.1,4.0,232.8,0.46,24.5,24.9,"09:20:24",1
"22/07/22","09:40",0.0,29.1,72.3,995.3,247.6,2.1,4.7,235.1,0.26,23.6,24.7,"09:30:02",1
"22/07/22","09:50",0.0,28.7,74.2,995.1,252.7,2.3,6.4,241.1,0.21,23.7,25.0,"09:40:40",1
"22/07/22","10:00",0.0,29.1,73.7,995.1,271.3,1.8,3.9,241.6,0.39,24.0,25.0,"09:53:12",1
"22/07/22","10:10",0.0,29.9,72.5,995.3,276.4,1.3,3.2,230.9,0.51,24.5,24.9,"10:00:16",1
"22/07/22","10:20",0.0,30.3,70.3,995.6,249.5,2.1,6.0,231.8,0.58,24.3,24.9,"10:18:24",1
"22/07/22","10:30",0.0,30.4,68.3,995.8,231.9,2.6,6.3,213.0,0.57,23.9,25.1,"10:21:36",1
"22/07/22","10:40",0.0,29.6,69.5,995.3,235.9,2.2,5.0,235.1,0.25,23.5,24.9,"10:33:12",1
"22/07/22","10:50",0.0,30.4,69.2,995.3,261.3,2.0,5.1,224.6,0.54,24.2,25.0,"10:40:16",1
"22/07/22","11:00",0.0,30.8,66.1,995.8,244.4,2.3,5.5,236.3,0.65,23.8,25.1,"10:50:16",1
"22/07/22","11:10",0.0,30.4,66.4,995.3,243.1,2.0,4.5,225.3,0.34,23.5,25.1,"11:03:20",1
"22/07/22","11:20",0.0,29.8,67.8,995.3,249.5,2.2,4.7,240.3,0.26,23.2,25.2,"11:13:20",1
"22/07/22","11:30",0.0,29.7,67.7,995.1,254.1,1.6,4.1,230.7,0.21,23.1,25.2,"11:29:28",1
"22/07/22","11:40",0.0,29.8,68.2,995.1,249.0,1.6,3.9,239.3,0.22,23.3,25.3,"11:34:32",1
"22/07/22","11:50",0.0,30.0,67.1,995.1,257.4,1.7,4.4,231.8,0.35,23.3,25.2,"11:49:44",1
"22/07/22","12:00",0.0,30.4,68.5,994.8,247.0,2.1,4.2,235.5,0.38,24.0,25.2,"11:57:12",1
"22/07/22","12:10",0.0,30.9,67.6,995.1,228.8,2.0,4.4,200.5,0.44,24.2,25.3,"12:06:40",1
"22/07/22","12:20",0.0,31.4,64.4,994.8,229.3,1.8,4.9,235.2,0.58,23.9,25.5,"12:19:44",1
"22/07/22","12:30",0.0,31.6,63.7,995.3,268.2,1.5,3.7,206.8,0.58,23.9,25.1,"12:23:12",1
"22/07/22","12:40",0.0,31.8,63.8,995.1,287.0,1.7,4.4,332.4,0.53,24.1,25.5,"12:30:32",1
"22/07/22","12:50",0.0,30.9,63.4,995.3,232.0,2.6,5.5,185.5,0.29,23.2,25.4,"12:41:12",1
"22/07/22","13:00",0.0,30.5,65.0,995.1,243.4,1.8,4.4,226.3,0.23,23.2,25.4,"12:56:24",1
"22/07/22","13:10",0.0,30.5,65.2,994.6,254.7,2.1,6.2,234.1,0.27,23.3,25.2,"13:06:56",1
"22/07/22","13:20",0.0,30.7,64.7,994.6,226.7,2.7,5.7,236.7,0.29,23.3,25.6,"13:17:04",1
"22/07/22","13:30",0.0,30.7,63.8,994.4,241.2,2.2,4.7,240.8,0.26,23.1,25.3,"13:25:52",1
"22/07/22","13:40",0.0,32.0,62.7,994.4,230.0,2.3,5.0,219.3,0.53,24.0,25.4,"13:38:16",1
"22/07/22","13:50",0.0,31.3,61.1,994.6,230.2,3.1,6.3,232.1,0.37,22.9,25.5,"13:46:00",1
"22/07/22","14:00",0.0,31.3,62.6,994.4,254.8,2.1,4.4,327.0,0.27,23.3,25.7,"13:59:12",1
"22/07/22","14:10",0.0,30.9,62.4,994.4,243.9,2.2,5.5,232.2,0.21,22.9,25.4,"14:08:28",1
"22/07/22","14:20",0.0,32.0,63.1,994.4,235.3,2.7,5.7,201.1,0.56,24.1,25.7,"14:19:28",1
"22/07/22","14:30",0.0,32.4,60.5,995.1,238.3,2.7,5.2,234.9,0.65,23.8,25.5,"14:24:32",1
"22/07/22","14:40",0.0,32.1,60.3,994.6,241.0,2.6,6.7,234.2,0.60,23.5,25.7,"14:35:04",1
"22/07/22","14:50",0.0,31.3,62.9,994.8,253.8,2.2,4.4,238.3,0.31,23.4,25.7,"14:41:12",1
"22/07/22","15:00",0.0,31.2,62.5,994.6,242.8,2.7,5.6,232.1,0.39,23.2,25.5,"14:59:12",1
"22/07/22","15:10",0.0,30.6,62.3,994.6,251.5,2.8,7.8,234.0,0.28,22.6,25.7,"15:02:00",1
"22/07/22","15:20",0.0,29.8,64.3,993.9,245.3,3.1,8.2,236.5,0.14,22.4,25.6,"15:12:56",1
"22/07/22","15:30",0.0,29.7,65.6,993.7,266.7,2.5,4.8,324.1,0.14,22.6,25.8,"15:28:32",1
"22/07/22","15:40",0.0,30.3,67.2,993.7,284.1,1.5,4.8,333.4,0.26,23.6,25.6,"15:31:44",1
"22/07/22","15:50",0.0,31.1,63.5,993.9,294.1,2.0,4.5,237.9,0.50,23.4,25.8,"15:48:32",1
"22/07/22","16:00",0.0,31.7,62.4,994.1,286.1,1.6,4.4,333.9,0.43,23.7,25.6,"15:58:00",1
"22/07/22","16:10",0.0,31.6,60.7,994.4,285.0,2.0,4.1,353.3,0.43,23.1,25.7,"16:00:56",1
"22/07/22","16:20",0.0,31.0,61.0,994.4,309.6,2.1,5.5,10.4,0.29,22.6,25.8,"16:15:52",1
"22/07/22","16:30",0.0,31.2,60.3,994.1,267.3,2.3,5.7,240.0,0.39,22.6,25.8,"16:22:32",1
"22/07/22","16:40",0.0,31.4,60.3,994.6,257.1,1.8,4.7,330.8,0.37,22.8,25.8,"16:39:52",1
"22/07/22","16:50",0.0,30.9,60.9,994.4,317.1,2.5,5.1,352.9,0.30,22.5,25.7,"16:40:24",1
"22/07/22","17:00",0.0,31.0,61.3,994.6,302.2,2.0,5.8,335.3,0.26,22.7,25.9,"16:50:08",1
"22/07/22","17:10",0.0,31.0,61.7,994.1,297.5,2.0,7.0,348.4,0.23,22.8,25.8,"17:04:40",1
"22/07/22","17:20",0.0,30.5,62.2,994.1,279.5,1.7,4.3,346.5,0.13,22.5,25.8,"17:19:44",1
"22/07/22","17:30",0.0,30.3,65.3,993.9,292.1,1.3,4.4,348.0,0.14,23.1,25.8,"17:24:08",1
"22/07/22","17:40",0.0,29.9,65.3,993.7,313.1,1.6,3.2,331.3,0.06,22.7,26.0,"17:30:40",1
"22/07/22","17:50",0.0,29.8,66.7,993.7,302.1,1.5,4.1,331.2,0.05,23.0,25.9,"17:45:20",1
"22/07/22","18:00",0.0,29.6,67.4,993.4,302.3,1.5,3.2,345.0,0.04,23.0,25.8,"17:53:04",1
"22/07/22","18:10",0.0,29.1,68.7,993.0,319.2,1.5,3.5,335.2,0.01,22.8,25.9,"18:04:16",1
"22/07/22","18:20",0.0,28.8,70.0,993.4,325.2,1.8,4.2,333.6,0.00,22.8,25.7,"18:12:40",1
"22/07/22","18:30",1.2,28.0,74.5,993.2,310.2,1.5,3.1,353.9,0.00,23.1,25.9,"18:22:32",1
"22/07/22","18:40",0.2,27.4,79.2,993.4,305.3,1.2,3.7,348.8,0.00,23.5,26.2,"18:38:48",1
"22/07/22","18:50",0.2,26.6,82.2,994.1,327.5,1.0,2.4,349.5,0.00,23.4,25.8,"18:45:36",1
"22/07/22","19:00",0.0,26.2,84.0,994.4,260.9,0.8,3.1,232.5,0.00,23.3,25.9,"18:59:12",1
"22/07/22","19:10",0.0,25.9,85.3,994.6,279.9,1.1,2.1,326.4,0.00,23.3,25.8,"19:09:52",1
"22/07/22","19:20",0.0,25.9,86.2,994.6,330.3,1.2,2.2,340.0,0.00,23.5,26.0,"19:19:44",1
"22/07/22","19:30",0.0,25.7,86.9,995.1,334.6,1.5,2.6,331.6,0.00,23.4,25.9,"19:25:52",1
"22/07/22","19:40",0.0,25.5,87.4,995.3,330.3,1.5,2.5,351.2,0.00,23.3,25.7,"19:37:52",1
"22/07/22","19:50",0.2,25.3,87.7,995.6,314.6,1.6,3.5,339.6,0.00,23.2,25.8,"19:44:32",1
"22/07/22","20:00",0.0,24.7,87.6,996.0,295.3,1.6,2.8,307.3,0.00,22.5,26.0,"19:56:08",1
"22/07/22","20:10",0.0,24.7,86.7,996.0,333.8,2.1,3.9,320.1,0.00,22.4,25.9,"20:00:32",1
"22/07/22","20:20",0.0,24.5,85.9,996.0,308.8,1.3,2.5,343.7,0.00,22.0,25.9,"20:13:12",1
"22/07/22","20:30",0.0,24.5,85.4,996.0,279.1,0.8,1.4,321.8,0.00,21.9,25.6,"20:21:04",1
"22/07/22","20:40",0.0,24.5,85.4,996.3,285.1,0.8,2.2,7.1,0.00,21.9,25.8,"20:39:04",1
"22/07/22","20:50",0.0,24.1,85.7,996.5,280.4,0.7,1.6,249.7,0.00,21.6,25.8,"20:45:04",1
"22/07/22","21:00",0.0,23.9,86.3,996.7,312.7,1.1,2.2,343.4,0.00,21.5,25.8,"20:57:20",1
"22/07/22","21:10",0.0,23.9,86.8,997.0,340.0,1.3,2.4,340.6,0.00,21.6,25.8,"21:04:48",1
"22/07/22","21:20",0.0,23.6,87.6,997.4,336.6,1.1,2.0,350.1,0.00,21.5,25.6,"21:17:12",1
"22/07/22","21:30",0.0,23.4,88.0,997.2,319.6,1.0,1.4,349.4,0.00,21.3,25.6,"21:24:40",1
"22/07/22","21:40",0.0,23.3,88.4,997.4,308.8,1.5,2.9,311.9,0.00,21.3,25.8,"21:36:56",1
"22/07/22","21:50",0.0,23.5,88.3,997.4,291.3,1.1,1.8,306.9,0.00,21.5,25.5,"21:45:28",1
"22/07/22","22:00",0.0,23.5,87.9,997.7,306.1,1.5,3.2,347.5,0.00,21.4,25.7,"21:57:52",1
"22/07/22","22:10",0.0,23.7,87.3,997.7,305.3,1.5,2.9,346.5,0.00,21.5,25.7,"22:07:36",1
"22/07/22","22:20",0.0,23.8,86.7,997.9,327.7,2.1,3.5,330.4,0.00,21.5,25.6,"22:10:16",1
"22/07/22","22:30",0.0,23.7,86.3,997.7,326.8,2.2,3.5,342.8,0.00,21.3,25.7,"22:27:12",1
"22/07/22","22:40",0.0,23.6,86.3,997.7,329.8,2.1,3.5,345.4,0.00,21.2,25.6,"22:30:02",1
"22/07/22","22:50",0.0,23.6,86.5,997.7,326.0,2.5,4.2,340.8,0.00,21.3,25.7,"22:45:44",1
"22/07/22","23:00",0.0,23.5,86.8,997.9,326.4,2.7,5.2,341.7,0.00,21.2,25.4,"22:53:28",1
"22/07/22","23:10",0.0,23.4,87.0,997.7,323.0,2.3,3.9,335.2,0.00,21.2,25.5,"23:00:40",1
"22/07/22","23:20",0.0,23.5,87.0,997.7,321.3,2.2,4.2,345.4,0.00,21.3,25.4,"23:13:20",1
"22/07/22","23:30",0.0,23.5,86.9,997.7,322.5,1.8,3.4,340.6,0.00,21.2,25.4,"23:21:20",1
"22/07/22","23:40",0.0,23.4,86.9,997.9,315.8,1.6,2.6,331.3,0.00,21.1,25.5,"23:39:52",1
"22/07/22","23:50",0.0,23.4,86.8,998.2,320.7,2.0,3.9,333.0,0.00,21.1,25.3,"23:45:04",1
"22/07/22","24:00",0.0,23.5,86.7,997.9,321.8,2.1,3.9,351.2,0.00,21.2,25.4,"23:50:08",1
